Powrót do katalogu

STARLINK-34876

AktywnyŁącznośćSSO
NORAD 65400·PAYLOAD·🇺🇸 United States

Wystrzelony Aug 30, 2025 z Vandenberg Space Force Base

Loading…

Następne Przeloty (najbliższe 24 godziny)

TLE

ŚwieżeSource: CelesTrak SupGP

Epoka: Sep 15, 2026, 03:49 UTC

1 65400C 25191X   26258.15951389 -.00005877  00000+0 -18232-3 0  2582
2 65400  97.2842 124.2540 0001873  95.8177 106.4794 15.33461974    18

Śledź STARLINK-34876 w czasie rzeczywistym z AllMySat

Download on the App Store